| time (UTC) | temp F | wind direction | speed MPH | gust MPH | rain 1hr in | rain 24hr in | rain mn in | humidity % | barometer mb |
| 20260905172048 | 75 | 0.0 | 0.0 | 0.08 | 0.35 | 0.09 | 95 | 1012.0 | |
| 20260905171608 | 74 | 0.0 | 0.0 | 0.07 | 0.34 | 0.08 | 95 | 1012.0 | |
| 20260905171047 | 74 | 0.0 | 0.0 | 0.07 | 0.34 | 0.08 | 95 | 1012.0 | |
| 20260905170547 | 75 | 0.0 | 0.0 | 0.06 | 0.33 | 0.07 | 94 | 1012.0 | |
| 20260905170104 | 75 | 0.0 | 0.0 | 0.06 | 0.33 | 0.07 | 93 | 1012.2 | |
| 20260905165548 | 75 | 0.0 | 0.0 | 0.05 | 0.32 | 0.06 | 91 | 1012.4 | |
| 20260905165049 | 76 | 0.0 | 0.0 | 0.04 | 0.31 | 0.05 | 90 | 1012.6 | |
| 20260905164608 | 76 | 0.0 | 0.0 | 0.03 | 0.30 | 0.04 | 89 | 1012.9 | |
| 20260905164047 | 76 | 0.0 | 0.0 | 0.02 | 0.29 | 0.03 | 89 | 1013.2 | |
| 20260905163545 | 76 | 0.0 | 0.0 | 0.02 | 0.29 | 0.03 | 88 | 1013.5 | |
| 20260905163109 | 76 | 0.0 | 0.0 | 0.01 | 0.28 | 0.02 | 88 | 1013.5 | |
| 20260905162546 | 77 | 0.0 | 0.0 | 0.01 | 0.28 | 0.02 | 88 | 1013.5 | |
| 20260905162046 | 77 | 0.0 | 0.0 | 0.00 | 0.27 | 0.01 | 88 | 1013.5 | |
| 20260905161608 | 77 | 0.0 | 0.0 | 0.00 | 0.27 | 0.01 | 87 | 1013.5 | |
| 20260905161045 | 77 | 0.0 | 0.0 | 0.00 | 0.27 | 0.01 | 87 | 1013.5 | |
| 20260905160545 | 77 | 0.0 | 0.0 | 0.00 | 0.27 | 0.01 | 87 | 1013.6 | |
| 20260905160123 | 77 | 0.0 | 0.0 | 0.00 | 0.27 | 0.01 | 87 | 1013.7 | |
| 20260905155547 | 77 | 0.0 | 0.0 | 0.00 | 0.27 | 0.01 | 87 | 1013.6 | |
| 20260905155045 | 77 | 0.0 | 0.0 | 0.00 | 0.27 | 0.01 | 86 | 1013.5 | |
| 20260905154607 | 77 | 0.0 | 0.0 | 0.00 | 0.27 | 0.01 | 86 | 1013.5 | |
| 20260905154046 | 76 | 0.0 | 0.0 | 0.00 | 0.27 | 0.01 | 85 | 1013.4 | |
| 20260905153545 | 77 | 0.0 | 0.0 | 0.00 | 0.27 | 0.01 | 87 | 1013.3 | |
| 20260905153106 | 77 | 0.0 | 0.0 | 0.00 | 0.27 | 0.01 | 86 | 1013.1 | |
| 20260905152547 | 77 | 0.0 | 0.0 | 0.00 | 0.27 | 0.01 | 85 | 1013.2 | |
| 20260905152046 | 76 | 0.0 | 0.0 | 0.00 | 0.27 | 0.01 | 85 | 1013.0 | |
| 20260905151611 | 77 | 0.0 | 0.0 | 0.00 | 0.27 | 0.01 | 86 | 1013.1 | |
| 20260905151046 | 77 | 0.0 | 0.0 | 0.00 | 0.27 | 0.01 | 84 | 1013.3 | |
| 20260905150545 | 77 | 0.0 | 0.0 | 0.00 | 0.27 | 0.01 | 86 | 1013.4 | |
| 20260905150106 | 77 | 0.0 | 0.0 | 0.00 | 0.27 | 0.01 | 85 | 1013.4 | |
| 20260905145546 | 77 | 0.0 | 0.0 | 0.00 | 0.27 | 0.01 | 85 | 1013.3 | |
| 20260905145048 | 76 | 0.0 | 0.0 | 0.00 | 0.27 | 0.01 | 85 | 1013.4 | |
| 20260905144604 | 77 | 0.0 | 0.0 | 0.00 | 0.27 | 0.01 | 85 | 1013.3 | |
| 20260905144045 | 77 | 0.0 | 0.0 | 0.00 | 0.27 | 0.01 | 84 | 1013.4 | |
| 20260905143546 | 77 | 0.0 | 0.0 | 0.00 | 0.27 | 0.01 | 84 | 1013.5 | |
| 20260905143114 | 77 | 0.0 | 0.0 | 0.00 | 0.27 | 0.01 | 85 | 1013.4 | |
| 20260905142546 | 77 | 0.0 | 0.0 | 0.00 | 0.27 | 0.01 | 86 | 1013.3 | |
| 20260905142046 | 77 | 0.0 | 0.0 | 0.00 | 0.27 | 0.01 | 84 | 1013.4 | |
| 20260905141606 | 77 | 0.0 | 0.0 | 0.00 | 0.27 | 0.01 | 85 | 1013.3 | |
| 20260905141045 | 77 | 0.0 | 0.0 | 0.00 | 0.27 | 0.01 | 86 | 1013.4 | |
| 20260905140545 | 77 | 0.0 | 0.0 | 0.00 | 0.27 | 0.01 | 86 | 1013.3 | |
| 20260905140110 | 76 | 0.0 | 0.0 | 0.00 | 0.27 | 0.01 | 86 | 1013.1 | |
| 20260905135548 | 76 | 0.0 | 0.0 | 0.00 | 0.27 | 0.01 | 87 | 1012.9 | |
| 20260905135048 | 76 | 0.0 | 0.0 | 0.00 | 0.27 | 0.01 | 87 | 1012.9 | |
| 20260905134606 | 75 | 0.0 | 0.0 | 0.00 | 0.27 | 0.01 | 88 | 1012.7 | |
| 20260905134047 | 75 | 0.0 | 0.0 | 0.00 | 0.27 | 0.01 | 89 | 1012.7 | |
| 20260905133548 | 75 | 0.0 | 0.0 | 0.00 | 0.27 | 0.01 | 88 | 1012.7 | |
| 20260905133108 | 75 | 0.0 | 0.0 | 0.00 | 0.27 | 0.01 | 89 | 1012.7 | |
| 20260905132551 | 74 | 0.0 | 0.0 | 0.00 | 0.27 | 0.01 | 92 | 1012.4 | |
| 20260905132048 | 74 | 0.0 | 0.0 | 0.00 | 0.27 | 0.01 | 92 | 1012.5 | |
| 20260905131609 | 73 | 0.0 | 0.0 | 0.00 | 0.27 | 0.01 | 94 | 1012.4 | |
| 20260905131047 | 73 | 0.0 | 0.0 | 0.00 | 0.27 | 0.01 | 96 | 1012.5 | |
| 20260905130545 | 72 | 0.0 | 0.0 | 0.00 | 0.27 | 0.01 | 96 | 1012.6 | |
| 20260905130117 | 71 | 0.0 | 0.0 | 0.00 | 0.27 | 0.01 | 96 | 1012.5 | |
| 20260905125547 | 71 | 0.0 | 0.0 | 0.00 | 0.27 | 0.01 | 96 | 1012.5 | |
| 20260905125047 | 71 | 0.0 | 0.0 | 0.00 | 0.27 | 0.01 | 96 | 1012.5 | |
| 20260905124605 | 71 | 0.0 | 0.0 | 0.00 | 0.27 | 0.01 | 96 | 1012.5 | |
| 20260905124048 | 71 | 0.0 | 0.0 | 0.00 | 0.27 | 0.01 | 96 | 1012.5 | |
| 20260905123547 | 71 | 0.0 | 0.0 | 0.00 | 0.27 | 0.01 | 96 | 1012.5 | |
| 20260905123104 | 71 | 0.0 | 0.0 | 0.00 | 0.27 | 0.01 | 96 | 1012.6 | |
| 20260905122548 | 70 | 0.0 | 0.0 | 0.00 | 0.27 | 0.01 | 96 | 1012.4 | |
| 20260905122045 | 70 | 0.0 | 0.0 | 0.00 | 0.27 | 0.01 | 96 | 1012.3 | |
| 20260905121605 | 70 | 0.0 | 0.0 | 0.00 | 0.27 | 0.01 | 96 | 1012.3 | |
| 20260905121044 | 70 | 0.0 | 0.0 | 0.00 | 0.27 | 0.01 | 96 | 1012.4 | |
| 20260905120551 | 69 | 0.0 | 0.0 | 0.00 | 0.27 | 0.01 | 96 | 1012.4 | |
| 20260905120114 | 69 | 0.0 | 0.0 | 0.00 | 0.27 | 0.01 | 96 | 1012.4 | |
| 20260905115550 | 69 | 0.0 | 0.0 | 0.00 | 0.27 | 0.01 | 95 | 1012.3 | |
| 20260905115047 | 69 | 0.0 | 0.0 | 0.00 | 0.27 | 0.01 | 95 | 1012.3 | |
| 20260905114602 | 69 | 0.0 | 0.0 | 0.00 | 0.27 | 0.01 | 95 | 1012.2 | |
| 20260905114047 | 69 | 0.0 | 0.0 | 0.00 | 0.27 | 0.01 | 95 | 1012.2 | |
| 20260905113547 | 69 | 0.0 | 0.0 | 0.00 | 0.27 | 0.01 | 95 | 1012.1 | |
| 20260905113105 | 68 | 0.0 | 0.0 | 0.00 | 0.27 | 0.01 | 95 | 1012.1 | |
| 20260905112547 | 68 | 0.0 | 0.0 | 0.00 | 0.27 | 0.01 | 95 | 1012.1 | |
| 20260905112048 | 68 | 0.0 | 0.0 | 0.00 | 0.27 | 0.01 | 95 | 1012.1 | |
| 20260905111612 | 68 | 0.0 | 0.0 | 0.00 | 0.27 | 0.01 | 95 | 1012.1 | |
| 20260905111044 | 68 | 0.0 | 0.0 | 0.00 | 0.27 | 0.01 | 95 | 1012.0 | |
| 20260905110549 | 68 | 0.0 | 0.0 | 0.00 | 0.27 | 0.01 | 95 | 1012.1 | |
| 20260905105548 | 68 | 0.0 | 0.0 | 0.00 | 0.27 | 0.01 | 95 | 1011.8 | |
| 20260905105044 | 68 | 0.0 | 0.0 | 0.00 | 0.27 | 0.01 | 95 | 1011.7 | |
| 20260905104600 | 68 | 0.0 | 0.0 | 0.00 | 0.27 | 0.01 | 95 | 1011.5 | |
| 20260905104047 | 68 | 0.0 | 0.0 | 0.00 | 0.27 | 0.01 | 95 | 1011.5 | |
| 20260905103547 | 68 | 0.0 | 0.0 | 0.00 | 0.27 | 0.01 | 95 | 1011.5 | |
| 20260905103106 | 68 | 0.0 | 0.0 | 0.00 | 0.27 | 0.01 | 95 | 1011.4 | |
| 20260905102548 | 68 | 0.0 | 0.0 | 0.00 | 0.27 | 0.01 | 95 | 1011.4 | |
| 20260905102047 | 69 | 0.0 | 0.0 | 0.00 | 0.27 | 0.01 | 95 | 1011.4 | |
| 20260905101606 | 69 | 0.0 | 0.0 | 0.00 | 0.27 | 0.01 | 95 | 1011.5 | |
| 20260905101046 | 69 | 0.0 | 0.0 | 0.00 | 0.27 | 0.01 | 95 | 1011.4 | |
| 20260905100547 | 69 | 0.0 | 0.0 | 0.00 | 0.27 | 0.01 | 95 | 1011.2 | |
| 20260905100100 | 69 | 0.0 | 0.0 | 0.00 | 0.27 | 0.01 | 95 | 1011.1 | |
| 20260905095546 | 69 | 0.0 | 0.0 | 0.00 | 0.27 | 0.01 | 95 | 1011.1 | |
| 20260905095047 | 69 | 0.0 | 0.0 | 0.00 | 0.27 | 0.01 | 95 | 1011.2 | |
| 20260905094556 | 69 | 0.0 | 0.0 | 0.00 | 0.27 | 0.01 | 95 | 1011.2 | |
| 20260905094047 | 69 | 0.0 | 0.0 | 0.00 | 0.27 | 0.01 | 95 | 1011.2 | |
| 20260905093547 | 69 | 0.0 | 0.0 | 0.00 | 0.27 | 0.01 | 95 | 1011.2 | |
| 20260905093105 | 69 | 0.0 | 0.0 | 0.00 | 0.27 | 0.01 | 95 | 1011.1 | |
| 20260905092547 | 69 | 0.0 | 0.0 | 0.00 | 0.27 | 0.01 | 95 | 1011.1 | |
| 20260905092051 | 69 | 0.0 | 0.0 | 0.00 | 0.27 | 0.01 | 94 | 1011.1 | |
| 20260905091559 | 69 | 0.0 | 0.0 | 0.00 | 0.27 | 0.01 | 94 | 1011.1 | |
| 20260905091046 | 69 | 0.0 | 0.0 | 0.00 | 0.27 | 0.01 | 94 | 1011.1 | |
| 20260905090548 | 69 | 0.0 | 0.0 | 0.00 | 0.27 | 0.01 | 94 | 1011.2 | |
| 20260905090059 | 69 | 0.0 | 0.0 | 0.00 | 0.27 | 0.01 | 94 | 1011.2 | |
| 20260905085558 | 69 | 0.0 | 0.0 | 0.00 | 0.27 | 0.01 | 94 | 1011.2 | |
| 20260905085046 | 69 | 0.0 | 0.0 | 0.00 | 0.27 | 0.01 | 94 | 1011.3 | |
| 20260905084615 | 69 | 0.0 | 0.0 | 0.00 | 0.27 | 0.01 | 94 | 1011.3 | |
| 20260905084047 | 69 | 0.0 | 0.0 | 0.00 | 0.27 | 0.01 | 94 | 1011.2 | |
| 20260905083547 | 69 | 0.0 | 0.0 | 0.00 | 0.27 | 0.01 | 94 | 1011.3 | |
| 20260905083104 | 69 | 0.0 | 0.0 | 0.00 | 0.27 | 0.01 | 94 | 1011.3 | |
| 20260905082559 | 69 | 0.0 | 0.0 | 0.00 | 0.27 | 0.01 | 94 | 1011.3 | |
| 20260905082049 | 69 | 0.0 | 0.0 | 0.00 | 0.27 | 0.01 | 94 | 1011.3 | |
| 20260905081604 | 69 | 0.0 | 0.0 | 0.00 | 0.27 | 0.01 | 94 | 1011.4 | |
| 20260905081047 | 69 | 0.0 | 0.0 | 0.00 | 0.27 | 0.01 | 94 | 1011.4 | |
| 20260905080547 | 69 | 0.0 | 0.0 | 0.00 | 0.27 | 0.01 | 94 | 1011.5 | |
| 20260905080101 | 69 | 0.0 | 0.0 | 0.00 | 0.27 | 0.01 | 94 | 1011.6 | |
| 20260905075549 | 69 | 0.0 | 0.0 | 0.00 | 0.27 | 0.01 | 94 | 1011.7 | |
| 20260905075046 | 69 | 0.0 | 0.0 | 0.00 | 0.27 | 0.01 | 94 | 1011.7 | |
| 20260905074604 | 69 | 0.0 | 0.0 | 0.00 | 0.27 | 0.01 | 94 | 1011.8 | |
| 20260905074047 | 69 | 0.0 | 0.0 | 0.01 | 0.27 | 0.01 | 94 | 1011.8 | |
| 20260905073547 | 70 | 0.0 | 0.0 | 0.01 | 0.27 | 0.01 | 94 | 1011.6 | |
| 20260905073108 | 70 | 0.0 | 0.0 | 0.01 | 0.27 | 0.01 | 94 | 1011.7 | |
| 20260905072549 | 70 | 0.0 | 0.0 | 0.01 | 0.27 | 0.01 | 94 | 1011.7 | |
| 20260905072048 | 70 | 0.0 | 0.0 | 0.01 | 0.27 | 0.01 | 94 | 1011.8 | |
| 20260905071601 | 70 | 0.0 | 0.0 | 0.01 | 0.27 | 0.01 | 94 | 1011.8 | |
| 20260905071049 | 70 | 0.0 | 0.0 | 0.01 | 0.27 | 0.01 | 94 | 1011.9 | |
| 20260905070548 | 70 | 0.0 | 0.0 | 0.01 | 0.27 | 0.01 | 94 | 1011.9 | |
| 20260905070110 | 70 | 0.0 | 0.0 | 0.01 | 0.27 | 0.01 | 94 | 1011.8 | |
| 20260905065547 | 70 | 0.0 | 0.0 | 0.01 | 0.28 | 0.01 | 94 | 1011.9 | |
| 20260905065050 | 70 | 0.0 | 0.0 | 0.01 | 0.28 | 0.01 | 94 | 1012.0 | |
| 20260905064049 | 70 | 0.0 | 0.0 | 0.00 | 0.27 | 0.00 | 94 | 1012.1 | |
| 20260905063547 | 70 | 0.0 | 0.0 | 0.00 | 0.27 | 0.00 | 94 | 1012.3 | |
| 20260905063109 | 70 | 0.0 | 0.0 | 0.00 | 0.27 | 0.00 | 94 | 1012.3 | |
| 20260905062549 | 70 | 0.0 | 0.0 | 0.00 | 0.27 | 0.00 | 94 | 1012.3 | |
| 20260905062051 | 70 | 0.0 | 0.0 | 0.00 | 0.27 | 0.00 | 94 | 1012.5 | |
| 20260905061611 | 70 | 0.0 | 0.0 | 0.00 | 0.27 | 0.00 | 94 | 1012.6 | |
| 20260905061050 | 70 | 0.0 | 0.0 | 0.00 | 0.27 | 0.00 | 94 | 1012.8 | |
| 20260905060551 | 70 | 0.0 | 0.0 | 0.00 | 0.27 | 0.00 | 94 | 1012.7 | |
| 20260905060104 | 70 | 0.0 | 0.0 | 0.00 | 0.27 | 0.00 | 94 | 1012.7 | |
| 20260905055546 | 70 | 0.0 | 0.0 | 0.00 | 0.34 | 0.00 | 94 | 1012.7 | |
| 20260905055051 | 70 | 0.0 | 0.0 | 0.00 | 0.34 | 0.00 | 94 | 1012.5 | |
| 20260905054600 | 70 | 0.0 | 0.0 | 0.00 | 0.34 | 0.00 | 94 | 1012.8 | |
| 20260905054046 | 70 | 0.0 | 0.0 | 0.00 | 0.34 | 0.00 | 94 | 1012.8 | |
| 20260905053546 | 71 | 0.0 | 0.0 | 0.00 | 0.34 | 0.00 | 94 | 1013.0 | |
| 20260905053142 | 71 | 0.0 | 0.0 | 0.00 | 0.34 | 0.00 | 94 | 1012.9 | |
| 20260905052547 | 71 | 0.0 | 0.0 | 0.00 | 0.34 | 0.00 | 94 | 1012.9 | |
| 20260905052047 | 71 | 0.0 | 0.0 | 0.00 | 0.34 | 0.00 | 94 | 1013.0 | |
| 20260905051604 | 71 | 0.0 | 0.0 | 0.00 | 0.34 | 0.00 | 94 | 1012.9 | |
| 20260905051047 | 71 | 0.0 | 0.0 | 0.00 | 0.34 | 0.00 | 94 | 1013.0 | |
| 20260905050547 | 71 | 0.0 | 0.0 | 0.00 | 0.34 | 0.00 | 94 | 1013.0 | |
| 20260905050104 | 71 | 0.0 | 0.0 | 0.00 | 0.34 | 0.00 | 94 | 1013.2 | |
| 20260905045549 | 71 | 0.0 | 0.0 | 0.00 | 0.57 | 0.00 | 94 | 1013.2 | |
| 20260905045047 | 71 | 0.0 | 0.0 | 0.00 | 0.57 | 0.00 | 94 | 1013.3 | |
| 20260905044607 | 71 | 0.0 | 0.0 | 0.00 | 0.57 | 0.00 | 94 | 1013.3 | |
| 20260905044046 | 71 | 0.0 | 0.0 | 0.00 | 0.57 | 0.00 | 94 | 1013.3 | |
| 20260905043543 | 71 | 0.0 | 0.0 | 0.00 | 0.57 | 0.00 | 94 | 1013.4 | |
| 20260905043106 | 71 | 0.0 | 0.0 | 0.00 | 0.57 | 0.00 | 94 | 1013.5 | |
| 20260905042548 | 71 | 0.0 | 0.0 | 0.00 | 0.57 | 0.00 | 94 | 1013.5 | |
| 20260905042051 | 71 | 0.0 | 0.0 | 0.00 | 0.57 | 0.00 | 94 | 1013.5 | |
| 20260905041608 | 71 | 0.0 | 0.0 | 0.00 | 0.57 | 0.00 | 94 | 1013.5 | |
| 20260905041047 | 71 | 0.0 | 0.0 | 0.00 | 0.57 | 0.00 | 94 | 1013.6 | |
| 20260905040548 | 71 | 0.0 | 0.0 | 0.00 | 0.57 | 0.00 | 94 | 1013.5 | |
| 20260905040104 | 71 | 0.0 | 0.0 | 0.00 | 0.57 | 0.00 | 94 | 1013.6 | |
| 20260905035543 | 71 | 0.0 | 0.0 | 0.00 | 0.57 | 0.57 | 94 | 1013.7 | |
| 20260905035047 | 71 | 0.0 | 0.0 | 0.00 | 0.57 | 0.57 | 94 | 1013.8 | |
| 20260905034558 | 71 | 0.0 | 0.0 | 0.00 | 0.57 | 0.57 | 94 | 1013.6 | |
| 20260905034048 | 72 | 0.0 | 0.0 | 0.00 | 0.57 | 0.57 | 93 | 1013.7 | |
| 20260905033555 | 72 | 0.0 | 0.0 | 0.00 | 0.57 | 0.57 | 93 | 1013.6 | |
| 20260905033102 | 72 | 0.0 | 0.0 | 0.00 | 0.57 | 0.57 | 93 | 1013.7 | |
| 20260905032548 | 72 | 0.0 | 0.0 | 0.00 | 0.57 | 0.57 | 94 | 1013.6 | |
| 20260905032047 | 72 | 0.0 | 0.0 | 0.00 | 0.57 | 0.57 | 94 | 1013.7 | |
| 20260905031605 | 72 | 0.0 | 0.0 | 0.00 | 0.57 | 0.57 | 94 | 1013.7 | |
| 20260905031050 | 72 | 0.0 | 0.0 | 0.00 | 0.57 | 0.57 | 94 | 1013.7 | |
| 20260905030549 | 72 | 0.0 | 0.0 | 0.00 | 0.57 | 0.57 | 94 | 1013.7 | |
| 20260905025549 | 72 | 0.0 | 0.0 | 0.00 | 0.63 | 0.57 | 93 | 1013.6 | |
| 20260905025050 | 72 | 0.0 | 0.0 | 0.00 | 0.63 | 0.57 | 93 | 1013.6 | |
| 20260905024624 | 72 | 0.0 | 0.0 | 0.00 | 0.63 | 0.57 | 93 | 1013.7 | |
| 20260905024050 | 72 | 0.0 | 0.0 | 0.00 | 0.63 | 0.57 | 93 | 1013.7 | |
| 20260905023549 | 72 | 0.0 | 0.0 | 0.00 | 0.63 | 0.57 | 93 | 1013.8 | |
| 20260905023124 | 72 | 0.0 | 0.0 | 0.00 | 0.63 | 0.57 | 93 | 1013.7 | |
| 20260905022546 | 72 | 0.0 | 0.0 | 0.00 | 0.63 | 0.57 | 94 | 1013.6 | |
| 20260905022050 | 72 | 0.0 | 0.0 | 0.00 | 0.63 | 0.57 | 93 | 1013.7 | |
| 20260905021614 | 72 | 0.0 | 0.0 | 0.00 | 0.63 | 0.57 | 93 | 1013.6 | |
| 20260905021050 | 72 | 0.0 | 0.0 | 0.00 | 0.63 | 0.57 | 93 | 1013.5 | |
| 20260905020550 | 73 | 0.0 | 0.0 | 0.00 | 0.63 | 0.57 | 93 | 1013.6 | |
| 20260905020112 | 73 | 0.0 | 0.0 | 0.00 | 0.63 | 0.57 | 93 | 1013.5 | |
| 20260905015547 | 73 | 0.0 | 0.0 | 0.00 | 0.63 | 0.57 | 93 | 1013.4 | |
| 20260905015049 | 73 | 0.0 | 0.0 | 0.00 | 0.63 | 0.57 | 93 | 1013.4 | |
| 20260905014616 | 73 | 0.0 | 0.0 | 0.00 | 0.63 | 0.57 | 93 | 1013.5 | |
| 20260905014051 | 73 | 0.0 | 0.0 | 0.00 | 0.63 | 0.57 | 93 | 1013.5 | |
| 20260905013548 | 73 | 0.0 | 0.0 | 0.00 | 0.63 | 0.57 | 93 | 1013.4 | |
| 20260905013105 | 73 | 0.0 | 0.0 | 0.00 | 0.63 | 0.57 | 93 | 1013.2 | |
| 20260905012550 | 73 | 0.0 | 0.0 | 0.00 | 0.63 | 0.57 | 93 | 1012.9 | |
| 20260905012050 | 73 | 0.0 | 0.0 | 0.00 | 0.63 | 0.57 | 93 | 1012.7 | |
| 20260905011623 | 73 | 0.0 | 0.0 | 0.00 | 0.63 | 0.57 | 93 | 1012.9 | |
| 20260905011047 | 73 | 0.0 | 0.0 | 0.00 | 0.63 | 0.57 | 93 | 1012.8 | |
| 20260905010551 | 73 | 0.0 | 0.0 | 0.00 | 0.63 | 0.57 | 93 | 1012.6 | |
| 20260905010117 | 73 | 0.0 | 0.0 | 0.00 | 0.63 | 0.57 | 93 | 1012.7 | |
| 20260905005547 | 73 | 0.0 | 0.0 | 0.00 | 0.63 | 0.57 | 93 | 1012.6 | |
| 20260905005050 | 73 | 0.0 | 0.0 | 0.00 | 0.63 | 0.57 | 93 | 1012.5 | |
| 20260905004604 | 73 | 0.0 | 0.0 | 0.00 | 0.63 | 0.57 | 93 | 1012.5 | |
| 20260905004046 | 73 | 0.0 | 0.0 | 0.00 | 0.63 | 0.57 | 93 | 1012.4 | |
| 20260905003559 | 74 | 0.0 | 0.0 | 0.00 | 0.63 | 0.57 | 93 | 1012.5 | |
| 20260905003107 | 74 | 0.0 | 0.0 | 0.00 | 0.63 | 0.57 | 93 | 1012.5 | |
| 20260905002553 | 74 | 0.0 | 0.0 | 0.00 | 0.63 | 0.57 | 93 | 1012.5 | |
| 20260905002049 | 74 | 0.0 | 0.0 | 0.00 | 0.63 | 0.57 | 93 | 1012.4 | |
| 20260905001606 | 74 | 0.0 | 0.0 | 0.00 | 0.63 | 0.57 | 93 | 1012.4 | |
| 20260905001051 | 74 | 0.0 | 0.0 | 0.00 | 0.63 | 0.57 | 93 | 1012.4 | |
| 20260905000547 | 74 | 0.0 | 0.0 | 0.00 | 0.63 | 0.57 | 93 | 1012.4 | |
| 20260905000114 | 74 | 0.0 | 0.0 | 0.00 | 0.63 | 0.57 | 93 | 1012.7 | |
| 20260904235546 | 74 | 0.0 | 0.0 | 0.00 | 0.63 | 0.57 | 93 | 1012.7 | |
| 20260904235050 | 74 | 0.0 | 0.0 | 0.00 | 0.63 | 0.57 | 93 | 1013.0 | |
| 20260904234612 | 74 | 0.0 | 0.0 | 0.00 | 0.63 | 0.57 | 93 | 1013.0 | |
| 20260904234051 | 74 | 0.0 | 0.0 | 0.00 | 0.63 | 0.57 | 92 | 1013.0 | |
| 20260904233547 | 74 | 0.0 | 0.0 | 0.00 | 0.63 | 0.57 | 92 | 1013.0 | |
| 20260904233103 | 74 | 0.0 | 0.0 | 0.00 | 0.63 | 0.57 | 92 | 1013.0 | |
| 20260904232547 | 74 | 0.0 | 0.0 | 0.00 | 0.63 | 0.57 | 92 | 1012.9 | |
| 20260904232046 | 74 | 0.0 | 0.0 | 0.00 | 0.63 | 0.57 | 92 | 1012.8 | |
| 20260904231610 | 74 | 0.0 | 0.0 | 0.00 | 0.63 | 0.57 | 92 | 1012.7 | |
| 20260904231047 | 74 | 0.0 | 0.0 | 0.00 | 0.63 | 0.57 | 92 | 1012.7 | |
| 20260904230547 | 74 | 0.0 | 0.0 | 0.00 | 0.63 | 0.57 | 92 | 1012.7 | |
| 20260904230117 | 74 | 0.0 | 0.0 | 0.00 | 0.63 | 0.57 | 92 | 1012.8 | |
| 20260904225546 | 74 | 0.0 | 0.0 | 0.00 | 0.63 | 0.57 | 92 | 1012.7 | |
| 20260904225049 | 74 | 0.0 | 0.0 | 0.00 | 0.63 | 0.57 | 92 | 1012.7 | |
| 20260904224614 | 74 | 0.0 | 0.0 | 0.00 | 0.63 | 0.57 | 92 | 1012.8 | |
| 20260904224048 | 74 | 0.0 | 0.0 | 0.00 | 0.63 | 0.57 | 91 | 1012.6 | |
| 20260904223546 | 74 | 0.0 | 0.0 | 0.00 | 0.63 | 0.57 | 91 | 1012.7 | |
| 20260904223126 | 74 | 0.0 | 0.0 | 0.00 | 0.63 | 0.57 | 91 | 1012.5 | |
| 20260904222550 | 74 | 0.0 | 0.0 | 0.00 | 0.63 | 0.57 | 91 | 1012.6 | |
| 20260904222046 | 74 | 0.0 | 0.0 | 0.00 | 0.63 | 0.57 | 90 | 1012.5 | |
| 20260904221608 | 74 | 0.0 | 0.0 | 0.00 | 0.63 | 0.57 | 91 | 1012.5 | |
| 20260904221046 | 74 | 0.0 | 0.0 | 0.00 | 0.63 | 0.57 | 90 | 1012.6 | |
| 20260904220545 | 74 | 0.0 | 0.0 | 0.00 | 0.63 | 0.57 | 90 | 1012.9 | |
| 20260904220113 | 74 | 0.0 | 0.0 | 0.00 | 0.63 | 0.57 | 90 | 1012.9 | |
| 20260904215549 | 75 | 0.0 | 0.0 | 0.00 | 0.63 | 0.57 | 89 | 1013.3 | |
| 20260904215047 | 75 | 0.0 | 0.0 | 0.00 | 0.63 | 0.57 | 89 | 1013.5 | |
| 20260904214614 | 75 | 0.0 | 0.0 | 0.02 | 0.63 | 0.57 | 89 | 1013.5 | |
| 20260904214047 | 75 | 0.0 | 0.0 | 0.05 | 0.63 | 0.57 | 88 | 1013.9 | |
| 20260904213547 | 75 | 0.0 | 0.0 | 0.08 | 0.63 | 0.57 | 88 | 1014.0 | |
| 20260904213110 | 75 | 0.0 | 0.0 | 0.12 | 0.63 | 0.57 | 88 | 1014.0 | |
| 20260904212548 | 75 | 0.0 | 0.0 | 0.18 | 0.63 | 0.57 | 87 | 1014.0 | |
| 20260904212047 | 76 | 0.0 | 0.0 | 0.24 | 0.63 | 0.57 | 87 | 1014.2 | |
| 20260904211613 | 76 | 0.0 | 0.0 | 0.26 | 0.63 | 0.57 | 86 | 1013.8 | |
| 20260904211047 | 77 | 0.0 | 0.0 | 0.26 | 0.63 | 0.57 | 86 | 1013.4 | |
| 20260904210551 | 77 | 0.0 | 0.0 | 0.26 | 0.63 | 0.57 | 85 | 1013.3 | |
| 20260904210120 | 77 | 0.0 | 0.0 | 0.26 | 0.63 | 0.57 | 85 | 1013.0 | |
| 20260904205547 | 78 | 0.0 | 0.0 | 0.26 | 0.63 | 0.57 | 83 | 1012.9 | |
| 20260904205047 | 78 | 0.0 | 0.0 | 0.26 | 0.63 | 0.57 | 82 | 1013.3 | |
| 20260904204609 | 79 | 0.0 | 0.0 | 0.24 | 0.61 | 0.55 | 80 | 1012.9 | |
| 20260904204047 | 80 | 0.0 | 0.0 | 0.21 | 0.58 | 0.52 | 79 | 1013.3 | |
| 20260904203549 | 81 | 0.0 | 0.0 | 0.18 | 0.55 | 0.49 | 77 | 1014.1 | |
| 20260904203102 | 82 | 0.0 | 0.0 | 0.14 | 0.51 | 0.45 | 77 | 1014.2 | |
| 20260904202547 | 84 | 0.0 | 0.0 | 0.08 | 0.45 | 0.39 | 78 | 1013.7 | |
| 20260904202047 | 85 | 0.0 | 0.0 | 0.02 | 0.39 | 0.33 | 78 | 1014.2 | |
| 20260904201636 | 86 | 0.0 | 0.0 | 0.00 | 0.37 | 0.31 | 77 | 1013.9 | |
| 20260904201046 | 87 | 0.0 | 0.0 | 0.00 | 0.37 | 0.31 | 75 | 1013.4 | |
| 20260904200556 | 87 | 0.0 | 0.0 | 0.00 | 0.37 | 0.31 | 76 | 1013.4 | |
| 20260904200122 | 87 | 0.0 | 0.0 | 0.00 | 0.37 | 0.31 | 76 | 1013.1 | |
| 20260904195547 | 87 | 0.0 | 0.0 | 0.00 | 0.37 | 0.31 | 76 | 1012.6 | |
| 20260904195047 | 87 | 0.0 | 0.0 | 0.00 | 0.37 | 0.31 | 74 | 1012.4 | |
| 20260904194613 | 88 | 0.0 | 0.0 | 0.00 | 0.37 | 0.31 | 73 | 1012.4 | |
| 20260904194047 | 88 | 0.0 | 0.0 | 0.00 | 0.37 | 0.31 | 73 | 1012.8 | |
| 20260904193547 | 88 | 0.0 | 0.0 | 0.00 | 0.37 | 0.31 | 73 | 1013.1 | |
| 20260904193106 | 87 | 0.0 | 0.0 | 0.00 | 0.37 | 0.31 | 73 | 1013.3 | |
| 20260904192546 | 87 | 0.0 | 0.0 | 0.00 | 0.37 | 0.31 | 73 | 1013.1 | |
| 20260904192046 | 87 | 0.0 | 0.0 | 0.00 | 0.37 | 0.31 | 72 | 1013.1 | |
| 20260904191606 | 87 | 0.0 | 0.0 | 0.00 | 0.37 | 0.31 | 71 | 1013.2 | |
| 20260904191048 | 88 | 0.0 | 0.0 | 0.00 | 0.37 | 0.31 | 68 | 1013.0 | |
| 20260904190556 | 89 | 0.0 | 0.0 | 0.00 | 0.37 | 0.31 | 66 | 1013.2 | |
| 20260904190115 | 89 | 0.0 | 0.0 | 0.00 | 0.37 | 0.31 | 65 | 1013.2 | |
| 20260904185544 | 90 | 0.0 | 0.0 | 0.00 | 0.37 | 0.31 | 60 | 1013.0 | |
| 20260904185048 | 91 | 0.0 | 0.0 | 0.00 | 0.37 | 0.31 | 59 | 1013.1 | |
| 20260904184600 | 92 | 0.0 | 0.0 | 0.00 | 0.37 | 0.31 | 56 | 1013.3 | |
| 20260904184047 | 94 | 0.0 | 0.0 | 0.00 | 0.37 | 0.31 | 54 | 1013.5 | |
| 20260904183547 | 94 | 0.0 | 0.0 | 0.00 | 0.37 | 0.31 | 56 | 1013.5 | |
| 20260904183108 | 94 | 0.0 | 0.0 | 0.00 | 0.37 | 0.31 | 55 | 1013.6 | |
| 20260904182546 | 94 | 0.0 | 0.0 | 0.00 | 0.37 | 0.31 | 53 | 1013.7 | |
| 20260904182046 | 94 | 0.0 | 0.0 | 0.00 | 0.37 | 0.31 | 55 | 1014.0 | |
| 20260904181607 | 93 | 0.0 | 0.0 | 0.00 | 0.37 | 0.31 | 57 | 1013.9 | |
| 20260904181047 | 93 | 0.0 | 0.0 | 0.00 | 0.37 | 0.31 | 55 | 1014.0 | |
| 20260904180547 | 93 | 0.0 | 0.0 | 0.00 | 0.37 | 0.31 | 54 | 1014.1 | |
| 20260904180104 | 93 | 0.0 | 0.0 | 0.00 | 0.37 | 0.31 | 55 | 1014.2 | |
| 20260904175548 | 92 | 0.0 | 0.0 | 0.00 | 0.37 | 0.31 | 54 | 1014.2 | |
| 20260904175048 | 91 | 0.0 | 0.0 | 0.00 | 0.37 | 0.31 | 59 | 1014.2 | |
| 20260904174558 | 92 | 0.0 | 0.0 | 0.00 | 0.37 | 0.31 | 58 | 1014.3 | |
| 20260904174047 | 92 | 0.0 | 0.0 | 0.00 | 0.37 | 0.31 | 54 | 1014.4 | |
| 20260904173546 | 92 | 0.0 | 0.0 | 0.00 | 0.37 | 0.31 | 56 | 1014.4 | |
| 20260904173128 | 91 | 0.0 | 0.0 | 0.00 | 0.37 | 0.31 | 56 | 1014.4 | |
| 20260904172546 | 91 | 0.0 | 0.0 | 0.00 | 0.37 | 0.31 | 57 | 1014.4 |